Regional Weather Roundup
Issued by NWS State College, PA

Home | Current Version | Previous Version | Graphics & Text | Print | Product List | Glossary Off
Versions: 1 2 3 4 5 6 7 8 9 10 11 12 13 14 15 16 17 18 19 20 21 22 23 24 25 26 27 28 29 30 31 32 33 34 35 36 37 38 39 40 41 42 43 44 45 46 47 48 49 50

000
ASUS41 KCTP 210910
RWRCTP

REGIONAL WEATHER ROUNDUP
NATIONAL WEATHER SERVICE STATE COLLEGE PA
500 AM EDT SUN SEP 21 2014

Note: "fair" indicates few or no clouds below 12,000 feet with no
significant weather and/or obstructions to visibility.

* = STATION THAT DOES NOT REPORT PRECIPITATION /E.G. RAIN...SNOW...ETC/
    THUNDER OR FOG.

PAZ002>004-007>009-013>016-020>023-029>032-211000-
WESTERN PENNSYLVANIA

CITY           SKY/WX    TMP DP  RH WIND       PRES   REMARKS
ERIE           CLOUDY    70  61  73 S16G24    29.73F
MEADVILLE      MOCLDY    66  61  84 S8        29.80F
FRANKLIN*      PTCLDY    64  59  82 S12       29.83F
NEW CASTLE     NOT AVBL
BEAVER COUNTY  NOT AVBL
BUTLER*        CLOUDY    66  61  82 SW9       29.86S
PITTSBURGH INT CLOUDY    69  62  78 SW13G20   29.83F
PITTSBURGH     CLOUDY    65  59  81 S10       29.85F
INDIANA*       CLOUDY    63  59  88 CALM      29.91F
LATROBE        MOCLDY    64  63  94 SW6       29.88F
WASHINGTON CO* PTCLDY    64  61  88 S5        29.86F
$$

PAZ004>006-010>012-017>019-024>028-033>037-041-042-045-046-049>053-211000-
CENTRAL PENNSYLVANIA

CITY           SKY/WX    TMP DP  RH WIND       PRES   REMARKS
BRADFORD       CLOUDY    63  59  87 VRB6      29.85F
DUBOIS         CLOUDY    63  59  87 S6        29.85F
CLEARFIELD     MOCLDY    56  55  97 N3        29.88F
JOHNSTOWN      CLEAR     60  55  83 S8        29.92F
ALTOONA        PTCLDY    57  55  93 CALM      29.91F
STATE COLLEGE  PTCLDY    59  55  87 W5        29.89F
WILLIAMSPORT   CLEAR     62  57  83 CALM      29.88F
SELINSGROVE    MOCLDY    57  56  96 CALM      29.91F FOG
FT INDIANTOWN  CLOUDY    55  55 100 SE2       29.92S
CAPITAL CITY   CLOUDY    62  60  93 CALM      29.91F FOG
HARRISBURG     CLOUDY    62  59  90 E3        29.90F
YORK           CLEAR     54  53  97 CALM      29.92S FOG
$$

PAZ038>040-043-044-047-048-054-055-060>062-067>071-211000-
EASTERN PENNSYLVANIA

CITY           SKY/WX    TMP DP  RH WIND       PRES   REMARKS
SCRANTON       CLEAR     56  54  93 SE3       29.91F
MOUNT POCONO   CLOUDY    57  55  93 S5        29.95F FOG
ALLENTOWN      FOG       54  54 100 NW5       29.93S VSB 1/4
QUAKERTOWN*    CLOUDY    63  61  94 CALM      29.93F
READING        FOG       58  56  93 SE5       29.91F VSB 1/2
LANCASTER      FOG       57  57 100 CALM      29.92F VSB 1/4
COATESVILLE    FOG       63  63 100 SE3       29.93F VSB 1
POTTSTOWN      PTCLDY    60  58  92 CALM      29.93F
BLUE BELL      CLOUDY    66  63  88 CALM      29.92F
DOYLESTOWN     CLOUDY    63  63 100 CALM      29.92F
WILLOW GROVE   NOT AVBL
NORTH PHILA    CLOUDY    67  62  84 SE6       29.94F
PHILADELPHIA   MOCLDY    65  62  90 E6        29.93F
$$



USA.gov is the U.S. government's official web portal to all federal, state and local government web resources and services.